Year,Month,Day,Hour,Minute,Value (Times are PST for temperature in C)
2018,06,10,00,00,10.60
2018,06,10,00,01,10.60
2018,06,10,00,02,10.60
2018,06,10,00,03,10.50
2018,06,10,00,04,10.50
2018,06,10,00,05,10.50
2018,06,10,00,06,10.50
2018,06,10,00,07,10.50
2018,06,10,00,08,10.40
2018,06,10,00,09,10.40
2018,06,10,00,10,10.40
2018,06,10,00,11,10.40
2018,06,10,00,12,10.40
2018,06,10,00,13,10.40
2018,06,10,00,14,10.40
2018,06,10,00,15,10.40
2018,06,10,00,16,10.40
2018,06,10,00,17,10.40
2018,06,10,00,18,10.40
2018,06,10,00,19,10.40
2018,06,10,00,20,10.30
2018,06,10,00,21,10.30
2018,06,10,00,22,10.30
2018,06,10,00,23,10.30
2018,06,10,00,24,10.30
2018,06,10,00,25,10.30
2018,06,10,00,26,10.30
2018,06,10,00,27,10.30
2018,06,10,00,28,10.30
2018,06,10,00,29,10.20
2018,06,10,00,30,10.20
2018,06,10,00,31,10.20
2018,06,10,00,32,10.20
2018,06,10,00,33,10.20
2018,06,10,00,34,10.10
2018,06,10,00,35,10.10
2018,06,10,00,36,10.10
2018,06,10,00,37,10.10
2018,06,10,00,38,10.10
2018,06,10,00,39,10.10
2018,06,10,00,40,10.00
2018,06,10,00,41,10.00
2018,06,10,00,42,10.00
2018,06,10,00,43,10.00
2018,06,10,00,44,9.90
2018,06,10,00,45,9.90
2018,06,10,00,46,9.90
2018,06,10,00,47,9.90
2018,06,10,00,48,9.80
2018,06,10,00,49,9.80
2018,06,10,00,50,9.80
2018,06,10,00,51,9.80
2018,06,10,00,52,9.70
2018,06,10,00,53,9.70
2018,06,10,00,54,9.70
2018,06,10,00,55,9.60
2018,06,10,00,56,9.60
2018,06,10,00,57,9.50
2018,06,10,00,58,9.50
2018,06,10,00,59,9.50
2018,06,10,01,00,9.40
2018,06,10,01,01,9.40
2018,06,10,01,02,9.40
2018,06,10,01,03,9.30
2018,06,10,01,04,9.30
2018,06,10,01,05,9.30
2018,06,10,01,06,9.30
2018,06,10,01,07,9.20
2018,06,10,01,08,9.20
2018,06,10,01,09,9.20
2018,06,10,01,10,9.10
2018,06,10,01,11,9.10
2018,06,10,01,12,9.10
2018,06,10,01,13,9.10
2018,06,10,01,14,9.00
2018,06,10,01,15,9.00
2018,06,10,01,16,8.90
2018,06,10,01,17,8.90
2018,06,10,01,18,8.90
2018,06,10,01,19,8.90
2018,06,10,01,20,8.80
2018,06,10,01,21,8.80
2018,06,10,01,22,8.80
2018,06,10,01,23,8.80
2018,06,10,01,24,8.80
2018,06,10,01,25,8.70
2018,06,10,01,26,8.70
2018,06,10,01,27,8.70
2018,06,10,01,28,8.70
2018,06,10,01,29,8.60
2018,06,10,01,30,8.60
2018,06,10,01,31,8.60
2018,06,10,01,32,8.60
2018,06,10,01,33,8.60
2018,06,10,01,34,8.60
2018,06,10,01,35,8.50
2018,06,10,01,36,8.50
2018,06,10,01,37,8.50
2018,06,10,01,38,8.50
2018,06,10,01,39,8.50
2018,06,10,01,40,8.50
2018,06,10,01,41,8.50
2018,06,10,01,42,8.50
2018,06,10,01,43,8.50
2018,06,10,01,44,8.50
2018,06,10,01,45,8.50
2018,06,10,01,46,8.40
2018,06,10,01,47,8.50
2018,06,10,01,48,8.40
2018,06,10,01,49,8.50
2018,06,10,01,50,8.50
2018,06,10,01,51,8.50
2018,06,10,01,52,8.50
2018,06,10,01,53,8.50
2018,06,10,01,54,8.50
2018,06,10,01,55,8.50
2018,06,10,01,56,8.50
2018,06,10,01,57,8.40
2018,06,10,01,58,8.40
2018,06,10,01,59,8.40
2018,06,10,02,00,8.40
2018,06,10,02,01,8.50
2018,06,10,02,02,8.50
2018,06,10,02,03,8.50
2018,06,10,02,04,8.50
2018,06,10,02,05,8.50
2018,06,10,02,06,8.60
2018,06,10,02,07,8.50
2018,06,10,02,08,8.50
2018,06,10,02,09,8.50
2018,06,10,02,10,8.50
2018,06,10,02,11,8.50
2018,06,10,02,12,8.50
2018,06,10,02,13,8.50
2018,06,10,02,14,8.50
2018,06,10,02,15,8.50
2018,06,10,02,16,8.50
2018,06,10,02,17,8.50
2018,06,10,02,18,8.40
2018,06,10,02,19,8.40
2018,06,10,02,20,8.40
2018,06,10,02,21,8.40
2018,06,10,02,22,8.40
2018,06,10,02,23,8.30
2018,06,10,02,24,8.30
2018,06,10,02,25,8.30
2018,06,10,02,26,8.30
2018,06,10,02,27,8.30
2018,06,10,02,28,8.30
2018,06,10,02,29,8.30
2018,06,10,02,30,8.30
2018,06,10,02,31,8.30
2018,06,10,02,32,8.20
2018,06,10,02,33,8.30
2018,06,10,02,34,8.30
2018,06,10,02,35,8.30
2018,06,10,02,36,8.40
2018,06,10,02,37,8.50
2018,06,10,02,38,8.50
2018,06,10,02,39,8.60
2018,06,10,02,40,8.60
2018,06,10,02,41,8.70
2018,06,10,02,42,8.80
2018,06,10,02,43,8.90
2018,06,10,02,44,8.90
2018,06,10,02,45,9.00
2018,06,10,02,46,9.00
2018,06,10,02,47,9.10
2018,06,10,02,48,9.10
2018,06,10,02,49,9.10
2018,06,10,02,50,9.10
2018,06,10,02,51,9.10
2018,06,10,02,52,9.10
2018,06,10,02,53,9.20
2018,06,10,02,54,9.20
2018,06,10,02,55,9.20
2018,06,10,02,56,9.20
2018,06,10,02,57,9.20
2018,06,10,02,58,9.20
2018,06,10,02,59,9.20
2018,06,10,03,00,9.20
2018,06,10,03,01,9.20
2018,06,10,03,02,9.20
2018,06,10,03,03,9.20
2018,06,10,03,04,9.20
2018,06,10,03,05,9.20
2018,06,10,03,06,9.20
2018,06,10,03,07,9.20
2018,06,10,03,08,9.20
2018,06,10,03,09,9.20
2018,06,10,03,10,9.20
2018,06,10,03,11,9.20
2018,06,10,03,12,9.20
2018,06,10,03,13,9.20
2018,06,10,03,14,9.20
2018,06,10,03,15,9.20
2018,06,10,03,16,9.20
2018,06,10,03,17,9.20
2018,06,10,03,18,9.20
2018,06,10,03,19,9.20
2018,06,10,03,20,9.20
2018,06,10,03,21,9.20
2018,06,10,03,22,9.20
2018,06,10,03,23,9.20
2018,06,10,03,24,9.20
2018,06,10,03,25,9.20
2018,06,10,03,26,9.30
2018,06,10,03,27,9.30
2018,06,10,03,28,9.30
2018,06,10,03,29,9.30
2018,06,10,03,30,9.30
2018,06,10,03,31,9.30
2018,06,10,03,32,9.30
2018,06,10,03,33,9.30
2018,06,10,03,34,9.30
2018,06,10,03,35,9.30
2018,06,10,03,36,9.40
2018,06,10,03,37,9.40
2018,06,10,03,38,9.40
2018,06,10,03,39,9.40
2018,06,10,03,40,9.40
2018,06,10,03,41,9.40
2018,06,10,03,42,9.40
2018,06,10,03,43,9.40
2018,06,10,03,44,9.40
2018,06,10,03,45,9.40
2018,06,10,03,46,9.50
2018,06,10,03,47,9.50
2018,06,10,03,48,9.50
2018,06,10,03,49,9.50
2018,06,10,03,50,9.60
2018,06,10,03,51,9.60
2018,06,10,03,52,9.70
2018,06,10,03,53,9.70
2018,06,10,03,54,9.70
2018,06,10,03,55,9.80
2018,06,10,03,56,9.80
2018,06,10,03,57,9.80
2018,06,10,03,58,9.90
2018,06,10,03,59,9.90
2018,06,10,04,00,9.90
2018,06,10,04,01,10.00
2018,06,10,04,02,10.00
2018,06,10,04,03,10.00
2018,06,10,04,04,10.00
2018,06,10,04,05,10.10
2018,06,10,04,06,10.10
2018,06,10,04,07,10.10
2018,06,10,04,08,10.10
2018,06,10,04,09,10.10
2018,06,10,04,10,10.10
2018,06,10,04,11,10.10
2018,06,10,04,12,10.10
2018,06,10,04,13,10.10
2018,06,10,04,14,10.10
2018,06,10,04,15,10.10
2018,06,10,04,16,10.10
2018,06,10,04,17,10.10
2018,06,10,04,18,10.10
2018,06,10,04,19,10.10
2018,06,10,04,20,10.10
2018,06,10,04,21,10.10
2018,06,10,04,22,10.10
2018,06,10,04,23,10.10
2018,06,10,04,24,10.00
2018,06,10,04,25,10.00
2018,06,10,04,26,10.00
2018,06,10,04,27,10.00
2018,06,10,04,28,10.00
2018,06,10,04,29,10.00
2018,06,10,04,30,10.00
2018,06,10,04,31,10.00
2018,06,10,04,32,9.90
2018,06,10,04,33,9.90
2018,06,10,04,34,9.90
2018,06,10,04,35,9.90
2018,06,10,04,36,9.90
2018,06,10,04,37,9.90
2018,06,10,04,38,9.90
2018,06,10,04,39,9.90
2018,06,10,04,40,9.90
2018,06,10,04,41,9.80
2018,06,10,04,42,9.80
2018,06,10,04,43,9.80
2018,06,10,04,44,9.80
2018,06,10,04,45,9.80
2018,06,10,04,46,9.80
2018,06,10,04,47,9.80
2018,06,10,04,48,9.80
2018,06,10,04,49,9.80
2018,06,10,04,50,9.70
2018,06,10,04,51,9.70
2018,06,10,04,52,9.70
2018,06,10,04,53,9.70
2018,06,10,04,54,9.70
2018,06,10,04,55,9.70
2018,06,10,04,56,9.60
2018,06,10,04,57,9.60
2018,06,10,04,58,9.60
2018,06,10,04,59,9.60
2018,06,10,05,00,9.60
2018,06,10,05,01,9.60
2018,06,10,05,02,9.50
2018,06,10,05,03,9.50
2018,06,10,05,04,9.50
2018,06,10,05,05,9.50
2018,06,10,05,06,9.50
2018,06,10,05,07,9.40
2018,06,10,05,08,9.40
2018,06,10,05,09,9.40
2018,06,10,05,10,9.40
2018,06,10,05,11,9.40
2018,06,10,05,12,9.30
2018,06,10,05,13,9.30
2018,06,10,05,14,9.30
2018,06,10,05,15,9.30
2018,06,10,05,16,9.30
2018,06,10,05,17,9.30
2018,06,10,05,18,9.20
2018,06,10,05,19,9.20
2018,06,10,05,20,9.20
2018,06,10,05,21,9.20
2018,06,10,05,22,9.20
2018,06,10,05,23,9.20
2018,06,10,05,24,9.20
2018,06,10,05,25,9.20
2018,06,10,05,26,9.20
2018,06,10,05,27,9.20
2018,06,10,05,28,9.20
2018,06,10,05,29,9.20
2018,06,10,05,30,9.20
2018,06,10,05,31,9.20
2018,06,10,05,32,9.20
2018,06,10,05,33,9.10
2018,06,10,05,34,9.10
2018,06,10,05,35,9.10
2018,06,10,05,36,9.10
2018,06,10,05,37,9.10
2018,06,10,05,38,9.10
2018,06,10,05,39,9.20
2018,06,10,05,40,9.20
2018,06,10,05,41,9.20
2018,06,10,05,42,9.20
2018,06,10,05,43,9.20
2018,06,10,05,44,9.10
2018,06,10,05,45,9.20
2018,06,10,05,46,9.20
2018,06,10,05,47,9.20
2018,06,10,05,48,9.20
2018,06,10,05,49,9.20
2018,06,10,05,50,9.10
2018,06,10,05,51,9.10
2018,06,10,05,52,9.10
2018,06,10,05,53,9.10
2018,06,10,05,54,9.10
2018,06,10,05,55,9.10
2018,06,10,05,56,9.10
2018,06,10,05,57,9.10
2018,06,10,05,58,9.10
2018,06,10,05,59,9.10
2018,06,10,06,00,9.10
2018,06,10,06,01,9.10
2018,06,10,06,02,9.10
2018,06,10,06,03,9.10
2018,06,10,06,04,9.10
2018,06,10,06,05,9.10
2018,06,10,06,06,9.10
2018,06,10,06,07,9.10
2018,06,10,06,08,9.00
2018,06,10,06,09,9.00
2018,06,10,06,10,9.00
2018,06,10,06,11,9.00
2018,06,10,06,12,9.00
2018,06,10,06,13,9.00
2018,06,10,06,14,9.00
2018,06,10,06,15,9.00
2018,06,10,06,16,8.90
2018,06,10,06,17,8.90
2018,06,10,06,18,8.90
2018,06,10,06,19,8.90
2018,06,10,06,20,8.90
2018,06,10,06,21,8.90
2018,06,10,06,22,8.90
2018,06,10,06,23,8.90
2018,06,10,06,24,8.90
2018,06,10,06,25,9.00
2018,06,10,06,26,9.00
2018,06,10,06,27,9.00
2018,06,10,06,28,9.00
2018,06,10,06,29,9.00
2018,06,10,06,30,9.10
2018,06,10,06,31,9.10
2018,06,10,06,32,9.10
2018,06,10,06,33,9.20
2018,06,10,06,34,9.20
2018,06,10,06,35,9.20
2018,06,10,06,36,9.20
2018,06,10,06,37,9.30
2018,06,10,06,38,9.30
2018,06,10,06,39,9.30
2018,06,10,06,40,9.40
2018,06,10,06,41,9.40
2018,06,10,06,42,9.40
2018,06,10,06,43,9.40
2018,06,10,06,44,9.50
2018,06,10,06,45,9.50
2018,06,10,06,46,9.50
2018,06,10,06,47,9.60
2018,06,10,06,48,9.60
2018,06,10,06,49,9.60
2018,06,10,06,50,9.60
2018,06,10,06,51,9.70
2018,06,10,06,52,9.70
2018,06,10,06,53,9.70
2018,06,10,06,54,9.80
2018,06,10,06,55,9.80
2018,06,10,06,56,9.80
2018,06,10,06,57,9.80
2018,06,10,06,58,9.80
2018,06,10,06,59,9.90
2018,06,10,07,00,9.90
2018,06,10,07,01,9.90
2018,06,10,07,02,9.90
2018,06,10,07,03,9.90
2018,06,10,07,04,9.90
2018,06,10,07,05,10.00
2018,06,10,07,06,10.00
2018,06,10,07,07,10.10
2018,06,10,07,08,10.10
2018,06,10,07,09,10.10
2018,06,10,07,10,10.20
2018,06,10,07,11,10.20
2018,06,10,07,12,10.20
2018,06,10,07,13,10.30
2018,06,10,07,14,10.30
2018,06,10,07,15,10.30
2018,06,10,07,16,10.30
2018,06,10,07,17,10.40
2018,06,10,07,18,10.40
2018,06,10,07,19,10.40
2018,06,10,07,20,10.50
2018,06,10,07,21,10.50
2018,06,10,07,22,10.60
2018,06,10,07,23,10.60
2018,06,10,07,24,10.60
2018,06,10,07,25,10.60
2018,06,10,07,26,10.70
2018,06,10,07,27,10.70
2018,06,10,07,28,10.70
2018,06,10,07,29,10.70
2018,06,10,07,30,10.80
2018,06,10,07,31,10.80
2018,06,10,07,32,10.80
2018,06,10,07,33,10.80
2018,06,10,07,34,10.90
2018,06,10,07,35,10.90
2018,06,10,07,36,10.90
2018,06,10,07,37,11.00
2018,06,10,07,38,11.00
2018,06,10,07,39,11.10
2018,06,10,07,40,11.10
2018,06,10,07,41,11.20
2018,06,10,07,42,11.20
2018,06,10,07,43,11.20
2018,06,10,07,44,11.20
2018,06,10,07,45,11.20
2018,06,10,07,46,11.20
2018,06,10,07,47,11.20
2018,06,10,07,48,11.20
2018,06,10,07,49,11.20
2018,06,10,07,50,11.20
2018,06,10,07,51,11.10
2018,06,10,07,52,11.20
2018,06,10,07,53,11.10
2018,06,10,07,54,11.10
2018,06,10,07,55,11.10
2018,06,10,07,56,11.10
2018,06,10,07,57,11.10
2018,06,10,07,58,11.10
2018,06,10,07,59,11.10
2018,06,10,08,00,11.20
2018,06,10,08,01,11.20
2018,06,10,08,02,11.20
2018,06,10,08,03,11.20
2018,06,10,08,04,11.20
2018,06,10,08,05,11.20
2018,06,10,08,06,11.20
2018,06,10,08,07,11.30
2018,06,10,08,08,11.30
2018,06,10,08,09,11.30
2018,06,10,08,10,11.30
2018,06,10,08,11,11.30
2018,06,10,08,12,11.30
2018,06,10,08,13,11.30
2018,06,10,08,14,11.30
2018,06,10,08,15,11.30
2018,06,10,08,16,11.30
2018,06,10,08,17,11.30
2018,06,10,08,18,11.30
2018,06,10,08,19,11.30
2018,06,10,08,20,11.30
2018,06,10,08,21,11.30
2018,06,10,08,22,11.30
2018,06,10,08,23,11.40
2018,06,10,08,24,11.40
2018,06,10,08,25,11.50
2018,06,10,08,26,11.60
2018,06,10,08,27,11.60
2018,06,10,08,28,11.70
2018,06,10,08,29,11.70
2018,06,10,08,30,11.70
2018,06,10,08,31,11.80
2018,06,10,08,32,11.80
2018,06,10,08,33,11.80
2018,06,10,08,34,11.80
2018,06,10,08,35,11.80
2018,06,10,08,36,11.80
2018,06,10,08,37,11.70
2018,06,10,08,38,11.80
2018,06,10,08,39,11.80
2018,06,10,08,40,11.80
2018,06,10,08,41,11.80
2018,06,10,08,42,11.90
2018,06,10,08,43,12.00
2018,06,10,08,44,12.10
2018,06,10,08,45,12.20
2018,06,10,08,46,12.30
2018,06,10,08,47,12.40
2018,06,10,08,48,12.50
2018,06,10,08,49,12.70
2018,06,10,08,50,12.80
2018,06,10,08,51,12.80
2018,06,10,08,52,12.90
2018,06,10,08,53,13.00
2018,06,10,08,54,13.00
2018,06,10,08,55,13.10
2018,06,10,08,56,13.20
2018,06,10,08,57,13.20
2018,06,10,08,58,13.20
2018,06,10,08,59,13.20
2018,06,10,09,00,13.20
2018,06,10,09,01,13.20
2018,06,10,09,02,13.20
2018,06,10,09,03,13.10
2018,06,10,09,04,13.10
2018,06,10,09,05,13.10
2018,06,10,09,06,13.00
2018,06,10,09,07,13.00
2018,06,10,09,08,12.90
2018,06,10,09,09,12.90
2018,06,10,09,10,12.80
2018,06,10,09,11,12.80
2018,06,10,09,12,12.70
2018,06,10,09,13,12.70
2018,06,10,09,14,12.70
2018,06,10,09,15,12.70
2018,06,10,09,16,12.70
2018,06,10,09,17,12.70
2018,06,10,09,18,12.70
2018,06,10,09,19,12.70
2018,06,10,09,20,12.70
2018,06,10,09,21,12.70
2018,06,10,09,22,12.70
2018,06,10,09,23,12.70
2018,06,10,09,24,12.70
2018,06,10,09,25,12.80
2018,06,10,09,26,12.80
2018,06,10,09,27,12.90
2018,06,10,09,28,13.00
2018,06,10,09,29,13.10
2018,06,10,09,30,13.10
2018,06,10,09,31,13.10
2018,06,10,09,32,13.20
2018,06,10,09,33,13.30
2018,06,10,09,34,13.40
2018,06,10,09,35,13.40
2018,06,10,09,36,13.50
2018,06,10,09,37,13.60
2018,06,10,09,38,13.60
2018,06,10,09,39,13.60
2018,06,10,09,40,13.60
2018,06,10,09,41,13.60
2018,06,10,09,42,13.60
2018,06,10,09,43,13.60
2018,06,10,09,44,13.60
2018,06,10,09,45,13.60
2018,06,10,09,46,13.60
2018,06,10,09,47,13.50
2018,06,10,09,48,13.50
2018,06,10,09,49,13.40
2018,06,10,09,50,13.40
2018,06,10,09,51,13.40
2018,06,10,09,52,13.40
2018,06,10,09,53,13.40
2018,06,10,09,54,13.50
2018,06,10,09,55,13.50
2018,06,10,09,56,13.50
2018,06,10,09,57,13.50
2018,06,10,09,58,13.50
2018,06,10,09,59,13.50
2018,06,10,10,00,13.40
2018,06,10,10,01,13.40
2018,06,10,10,02,13.50
2018,06,10,10,03,13.50
2018,06,10,10,04,13.50
2018,06,10,10,05,13.50
2018,06,10,10,06,13.50
2018,06,10,10,07,13.50
2018,06,10,10,08,13.50
2018,06,10,10,09,13.60
2018,06,10,10,10,13.60
2018,06,10,10,11,13.60
2018,06,10,10,12,13.70
2018,06,10,10,13,13.70
2018,06,10,10,14,13.70
2018,06,10,10,15,13.80
2018,06,10,10,16,13.80
2018,06,10,10,17,13.80
2018,06,10,10,18,13.90
2018,06,10,10,19,13.90
2018,06,10,10,20,13.90
2018,06,10,10,21,14.00
2018,06,10,10,22,14.10
2018,06,10,10,23,14.10
2018,06,10,10,24,14.20
2018,06,10,10,25,14.30
2018,06,10,10,26,14.30
2018,06,10,10,27,14.40
2018,06,10,10,28,14.40
2018,06,10,10,29,14.40
2018,06,10,10,30,14.40
2018,06,10,10,31,14.40
2018,06,10,10,32,14.40
2018,06,10,10,33,14.30
2018,06,10,10,34,14.40
2018,06,10,10,35,14.50
2018,06,10,10,36,14.50
2018,06,10,10,37,14.70
2018,06,10,10,38,14.80
2018,06,10,10,39,15.00
2018,06,10,10,40,15.10
2018,06,10,10,41,15.20
2018,06,10,10,42,15.20
2018,06,10,10,43,15.30
2018,06,10,10,44,15.30
2018,06,10,10,45,15.40
2018,06,10,10,46,15.40
2018,06,10,10,47,15.30
2018,06,10,10,48,15.20
2018,06,10,10,49,15.10
2018,06,10,10,50,15.00
2018,06,10,10,51,14.90
2018,06,10,10,52,14.80
2018,06,10,10,53,14.60
2018,06,10,10,54,14.60
2018,06,10,10,55,14.50
2018,06,10,10,56,14.40
2018,06,10,10,57,14.40
2018,06,10,10,58,14.50
2018,06,10,10,59,14.60
2018,06,10,11,00,14.70
2018,06,10,11,01,14.80
2018,06,10,11,02,14.90
2018,06,10,11,03,14.90
2018,06,10,11,04,14.90
2018,06,10,11,05,14.90
2018,06,10,11,06,14.90
2018,06,10,11,07,14.80
2018,06,10,11,08,14.80
2018,06,10,11,09,14.80
2018,06,10,11,10,14.80
2018,06,10,11,11,14.80
2018,06,10,11,12,14.80
2018,06,10,11,13,14.80
2018,06,10,11,14,14.80
2018,06,10,11,15,14.70
2018,06,10,11,16,14.70
2018,06,10,11,17,14.60
2018,06,10,11,18,14.60
2018,06,10,11,19,14.60
2018,06,10,11,20,14.60
2018,06,10,11,21,14.60
2018,06,10,11,22,14.50
2018,06,10,11,23,14.50
2018,06,10,11,24,14.60
2018,06,10,11,25,14.60
2018,06,10,11,26,14.70
2018,06,10,11,27,14.80
2018,06,10,11,28,14.90
2018,06,10,11,29,15.00
2018,06,10,11,30,15.10
2018,06,10,11,31,15.20
2018,06,10,11,32,15.30
2018,06,10,11,33,15.40
2018,06,10,11,34,15.40
2018,06,10,11,35,15.40
2018,06,10,11,36,15.50
2018,06,10,11,37,15.60
2018,06,10,11,38,15.60
2018,06,10,11,39,15.60
2018,06,10,11,40,15.50
2018,06,10,11,41,15.60
2018,06,10,11,42,15.60
2018,06,10,11,43,15.70
2018,06,10,11,44,15.70
2018,06,10,11,45,15.80
2018,06,10,11,46,15.80
2018,06,10,11,47,15.90
2018,06,10,11,48,15.90
2018,06,10,11,49,16.00
2018,06,10,11,50,16.00
2018,06,10,11,51,16.00
2018,06,10,11,52,16.00
2018,06,10,11,53,16.00
2018,06,10,11,54,16.00
2018,06,10,11,55,16.10
2018,06,10,11,56,16.10
2018,06,10,11,57,16.10
2018,06,10,11,58,16.20
2018,06,10,11,59,16.20
2018,06,10,12,00,16.30
2018,06,10,12,01,16.40
2018,06,10,12,02,16.40
2018,06,10,12,03,16.40
2018,06,10,12,04,16.50
2018,06,10,12,05,16.50
2018,06,10,12,06,16.50
2018,06,10,12,07,16.40
2018,06,10,12,08,16.40
2018,06,10,12,09,16.20
2018,06,10,12,10,16.20
2018,06,10,12,11,16.10
2018,06,10,12,12,16.10
2018,06,10,12,13,16.00
2018,06,10,12,14,16.00
2018,06,10,12,15,15.90
2018,06,10,12,16,15.90
2018,06,10,12,17,15.90
2018,06,10,12,18,15.90
2018,06,10,12,19,15.90
2018,06,10,12,20,16.00
2018,06,10,12,21,16.00
2018,06,10,12,22,16.10
2018,06,10,12,23,16.10
2018,06,10,12,24,16.10
2018,06,10,12,25,16.20
2018,06,10,12,26,16.30
2018,06,10,12,27,16.40
2018,06,10,12,28,16.40
2018,06,10,12,29,16.40
2018,06,10,12,30,16.40
2018,06,10,12,31,16.40
2018,06,10,12,32,16.40
2018,06,10,12,33,16.40
2018,06,10,12,34,16.40
2018,06,10,12,35,16.40
2018,06,10,12,36,16.50
2018,06,10,12,37,16.50
2018,06,10,12,38,16.50
2018,06,10,12,39,16.60
2018,06,10,12,40,16.70
2018,06,10,12,41,16.70
2018,06,10,12,42,16.80
2018,06,10,12,43,16.90
2018,06,10,12,44,16.90
2018,06,10,12,45,17.00
2018,06,10,12,46,16.90
2018,06,10,12,47,16.80
2018,06,10,12,48,16.80
2018,06,10,12,49,16.70
2018,06,10,12,50,16.70
2018,06,10,12,51,16.80
2018,06,10,12,52,16.80
2018,06,10,12,53,16.90
2018,06,10,12,54,17.00
2018,06,10,12,55,17.00
2018,06,10,12,56,17.10
2018,06,10,12,57,17.10
2018,06,10,12,58,17.20
2018,06,10,12,59,17.20
2018,06,10,13,00,17.20
2018,06,10,13,01,17.10
2018,06,10,13,02,17.10
2018,06,10,13,03,17.10
2018,06,10,13,04,17.10
2018,06,10,13,05,17.10
2018,06,10,13,06,17.00
2018,06,10,13,07,17.10
2018,06,10,13,08,17.00
2018,06,10,13,09,17.00
2018,06,10,13,10,17.00
2018,06,10,13,11,16.90
2018,06,10,13,12,16.90
2018,06,10,13,13,17.00
2018,06,10,13,14,17.00
2018,06,10,13,15,17.10
2018,06,10,13,16,17.10
2018,06,10,13,17,17.10
2018,06,10,13,18,17.10
2018,06,10,13,19,17.10
2018,06,10,13,20,17.20
2018,06,10,13,21,17.20
2018,06,10,13,22,17.30
2018,06,10,13,23,17.30
2018,06,10,13,24,17.30
2018,06,10,13,25,17.30
2018,06,10,13,26,17.30
2018,06,10,13,27,17.30
2018,06,10,13,28,17.20
2018,06,10,13,29,17.30
2018,06,10,13,30,17.20
2018,06,10,13,31,17.20
2018,06,10,13,32,17.20
2018,06,10,13,33,17.20
2018,06,10,13,34,17.20
2018,06,10,13,35,17.30
2018,06,10,13,36,17.30
2018,06,10,13,37,17.20
2018,06,10,13,38,17.10
2018,06,10,13,39,17.00
2018,06,10,13,40,16.80
2018,06,10,13,41,16.70
2018,06,10,13,42,16.60
2018,06,10,13,43,16.60
2018,06,10,13,44,16.60
2018,06,10,13,45,16.50
2018,06,10,13,46,16.40
2018,06,10,13,47,16.40
2018,06,10,13,48,16.40
2018,06,10,13,49,16.40
2018,06,10,13,50,16.40
2018,06,10,13,51,16.40
2018,06,10,13,52,16.40
2018,06,10,13,53,16.30
2018,06,10,13,54,16.20
2018,06,10,13,55,16.20
2018,06,10,13,56,16.10
2018,06,10,13,57,16.00
2018,06,10,13,58,16.00
2018,06,10,13,59,16.00
2018,06,10,14,00,16.00
2018,06,10,14,01,16.00
2018,06,10,14,02,16.00
2018,06,10,14,03,16.10
2018,06,10,14,04,16.20
2018,06,10,14,05,16.30
2018,06,10,14,06,16.40
2018,06,10,14,07,16.40
2018,06,10,14,08,16.50
2018,06,10,14,09,16.50
2018,06,10,14,10,16.50
2018,06,10,14,11,16.50
2018,06,10,14,12,16.50
2018,06,10,14,13,16.40
2018,06,10,14,14,16.40
2018,06,10,14,15,16.40
2018,06,10,14,16,16.40
2018,06,10,14,17,16.30
2018,06,10,14,18,16.20
2018,06,10,14,19,16.10
2018,06,10,14,20,16.00
2018,06,10,14,21,15.90
2018,06,10,14,22,15.90
2018,06,10,14,23,15.80
2018,06,10,14,24,15.70
2018,06,10,14,25,15.60
2018,06,10,14,26,15.50
2018,06,10,14,27,15.50
2018,06,10,14,28,15.40
2018,06,10,14,29,15.30
2018,06,10,14,30,15.20
2018,06,10,14,31,15.20
2018,06,10,14,32,15.20
2018,06,10,14,33,15.20
2018,06,10,14,34,15.20
2018,06,10,14,35,15.20
2018,06,10,14,36,15.20
2018,06,10,14,37,15.20
2018,06,10,14,38,15.20
2018,06,10,14,39,15.20
2018,06,10,14,40,15.10
2018,06,10,14,41,15.20
2018,06,10,14,42,15.20
2018,06,10,14,43,15.20
2018,06,10,14,44,15.20
2018,06,10,14,45,15.20
2018,06,10,14,46,15.10
2018,06,10,14,47,15.10
2018,06,10,14,48,15.10
2018,06,10,14,49,15.10
2018,06,10,14,50,15.00
2018,06,10,14,51,15.00
2018,06,10,14,52,14.90
2018,06,10,14,53,14.90
2018,06,10,14,54,14.80
2018,06,10,14,55,14.80
2018,06,10,14,56,14.90
2018,06,10,14,57,14.90
2018,06,10,14,58,14.90
2018,06,10,14,59,15.00
2018,06,10,15,00,15.00
2018,06,10,15,01,15.00
2018,06,10,15,02,15.10
2018,06,10,15,03,15.20
2018,06,10,15,04,15.30
2018,06,10,15,05,15.40
2018,06,10,15,06,15.50
2018,06,10,15,07,15.60
2018,06,10,15,08,15.70
2018,06,10,15,09,15.80
2018,06,10,15,10,15.90
2018,06,10,15,11,16.00
2018,06,10,15,12,16.10
2018,06,10,15,13,16.20
2018,06,10,15,14,16.20
2018,06,10,15,15,16.30
2018,06,10,15,16,16.40
2018,06,10,15,17,16.40
2018,06,10,15,18,16.40
2018,06,10,15,19,16.50
2018,06,10,15,20,16.50
2018,06,10,15,21,16.50
2018,06,10,15,22,16.60
2018,06,10,15,23,16.60
2018,06,10,15,24,16.70
2018,06,10,15,25,16.80
2018,06,10,15,26,16.80
2018,06,10,15,27,16.90
2018,06,10,15,28,16.90
2018,06,10,15,29,16.80
2018,06,10,15,30,16.70
2018,06,10,15,31,16.60
2018,06,10,15,32,16.60
2018,06,10,15,33,16.60
2018,06,10,15,34,16.60
2018,06,10,15,35,16.70
2018,06,10,15,36,16.80
2018,06,10,15,37,16.90
2018,06,10,15,38,16.90
2018,06,10,15,39,16.90
2018,06,10,15,40,16.80
2018,06,10,15,41,16.70
2018,06,10,15,42,16.80
2018,06,10,15,43,16.80
2018,06,10,15,44,16.80
2018,06,10,15,45,16.90
2018,06,10,15,46,16.90
2018,06,10,15,47,16.80
2018,06,10,15,48,16.80
2018,06,10,15,49,16.80
2018,06,10,15,50,16.80
2018,06,10,15,51,16.80
2018,06,10,15,52,16.70
2018,06,10,15,53,16.70
2018,06,10,15,54,16.60
2018,06,10,15,55,16.60
2018,06,10,15,56,16.60
2018,06,10,15,57,16.60
2018,06,10,15,58,16.60
2018,06,10,15,59,16.60
2018,06,10,16,00,16.70
2018,06,10,16,01,16.70
2018,06,10,16,02,16.80
2018,06,10,16,03,16.90
2018,06,10,16,04,17.10
2018,06,10,16,05,17.20
2018,06,10,16,06,17.30
2018,06,10,16,07,17.30
2018,06,10,16,08,17.30
2018,06,10,16,09,17.30
2018,06,10,16,10,17.30
2018,06,10,16,11,17.30
2018,06,10,16,12,17.30
2018,06,10,16,13,17.20
2018,06,10,16,14,17.10
2018,06,10,16,15,17.10
2018,06,10,16,16,17.00
2018,06,10,16,17,16.80
2018,06,10,16,18,16.70
2018,06,10,16,19,16.70
2018,06,10,16,20,16.70
2018,06,10,16,21,16.70
2018,06,10,16,22,16.80
2018,06,10,16,23,16.80
2018,06,10,16,24,16.80
2018,06,10,16,25,16.90
2018,06,10,16,26,17.00
2018,06,10,16,27,17.00
2018,06,10,16,28,16.90
2018,06,10,16,29,16.80
2018,06,10,16,30,16.70
2018,06,10,16,31,16.60
2018,06,10,16,32,16.40
2018,06,10,16,33,16.20
2018,06,10,16,34,16.00
2018,06,10,16,35,15.90
2018,06,10,16,36,15.70
2018,06,10,16,37,15.60
2018,06,10,16,38,15.60
2018,06,10,16,39,15.50
2018,06,10,16,40,15.60
2018,06,10,16,41,15.50
2018,06,10,16,42,15.50
2018,06,10,16,43,15.40
2018,06,10,16,44,15.30
2018,06,10,16,45,15.20
2018,06,10,16,46,15.10
2018,06,10,16,47,15.00
2018,06,10,16,48,14.90
2018,06,10,16,49,14.80
2018,06,10,16,50,14.80
2018,06,10,16,51,14.70
2018,06,10,16,52,14.70
2018,06,10,16,53,14.60
2018,06,10,16,54,14.60
2018,06,10,16,55,14.60
2018,06,10,16,56,14.60
2018,06,10,16,57,14.70
2018,06,10,16,58,14.80
2018,06,10,16,59,14.90
2018,06,10,17,00,15.10
2018,06,10,17,01,15.20
2018,06,10,17,02,15.30
2018,06,10,17,03,15.30
2018,06,10,17,04,15.20
2018,06,10,17,05,15.10
2018,06,10,17,06,15.00
2018,06,10,17,07,15.00
2018,06,10,17,08,15.00
2018,06,10,17,09,14.90
2018,06,10,17,10,15.00
2018,06,10,17,11,15.10
2018,06,10,17,12,15.20
2018,06,10,17,13,15.30
2018,06,10,17,14,15.30
2018,06,10,17,15,15.40
2018,06,10,17,16,15.30
2018,06,10,17,17,15.30
2018,06,10,17,18,15.20
2018,06,10,17,19,15.20
2018,06,10,17,20,15.20
2018,06,10,17,21,15.20
2018,06,10,17,22,15.30
2018,06,10,17,23,15.40
2018,06,10,17,24,15.40
2018,06,10,17,25,15.50
2018,06,10,17,26,15.60
2018,06,10,17,27,15.70
2018,06,10,17,28,15.80
2018,06,10,17,29,15.90
2018,06,10,17,30,16.00
2018,06,10,17,31,16.10
2018,06,10,17,32,16.20
2018,06,10,17,33,16.20
2018,06,10,17,34,16.20